Weather History for Defuniak Springs, Defuniak Sp, FL

Change the Weather History Date:

Thursday, August 21, 2014

  Actual Average (KCEW) Record (KCEW)
Temperature  
Mean Temperature 82 °F -  
Max Temperature 93 °F 92 °F 101 °F (1983)
Min Temperature 72 °F 71 °F 61 °F (1991)
Cooling Degree Days 18    
Growing Degree Days 32 (Base 50)    
Moisture  
Dew Point 74 °F    
Average Humidity 81    
Maximum Humidity 99    
Minimum Humidity 49    
Precipitation  
Precipitation 0.04 in - - ()
Sea Level Pressure  
Sea Level Pressure 30.11 in    
Wind  
Wind Speed 2 mph (WNW)    
Max Wind Speed 9 mph    
Max Gust Speed -    
Visibility 10 miles    
Events      
Averages and records for this station are not official NWS values.
T = Trace of Precipitation, MM = Missing Value Source: NWS Daily Summary

Daily Weather History Graph

Daily Weather History Graph

Search for Another Location

Airport:

Trip Planner

Search our weather history database for the weather conditions in past years. The results will help you decide how hot, cold, wet, or windy it might be!

Date:

Astronomy

Aug. 21, 2014 Rise Set
Actual Time 6:14 AM CDT 7:20 PM CDT
Civil Twilight 5:49 AM CDT 7:45 PM CDT
Nautical Twilight 5:19 AM CDT 8:14 PM CDT
Astronomical Twilight 4:49 AM CDT 8:45 PM CDT
Moon 2:51 AM CDT (8/21) 4:43 PM CDT (8/21)
Length of Visible Light 13h 55m
Length of Day
13h 05m
Waning Crescent, 13% of the Moon is Illuminated
Aug 21
Waning Crescent
Aug 25
New
Sep 2
First Quarter
Sep 8
Full
Sep 15
Last Quarter

Hourly Weather History & Observations

Time (CDT) Temp. Heat Index Dew Point Humidity Pressure Visibility Wind Dir Wind Speed Gust Speed Precip Events Conditions
12:15 AM 75.2 °F - 73.2 °F 94% 30.12 in 10.0 mi Calm Calm - N/A   Clear
12:35 AM 74.1 °F - 72.7 °F 95% 30.12 in 10.0 mi Calm Calm - N/A   Clear
12:55 AM 74.3 °F - 72.9 °F 95% 30.11 in 10.0 mi Calm Calm - N/A   Clear
1:15 AM 75.2 °F - 73.2 °F 94% 30.10 in 10.0 mi Calm Calm - N/A   Clear
1:35 AM 75.2 °F - 73.4 °F 94% 30.10 in 10.0 mi Calm Calm - N/A   Clear
1:55 AM 73.0 °F - 72.1 °F 97% 30.10 in 7.0 mi Calm Calm - N/A   Clear
2:15 AM 73.4 °F - 72.0 °F 95% 30.10 in 7.0 mi Calm Calm - N/A   Clear
2:35 AM 73.4 °F - 72.9 °F 98% 30.09 in 7.0 mi Calm Calm - N/A   Clear
2:55 AM 72.9 °F - 72.5 °F 99% 30.09 in 7.0 mi SW 3.5 mph - N/A   Clear
3:15 AM 72.9 °F - 72.5 °F 99% 30.08 in 5.0 mi Calm Calm - N/A   Clear
3:35 AM 72.9 °F - 72.3 °F 98% 30.09 in 7.0 mi Calm Calm - N/A   Clear
3:55 AM 73.2 °F - 72.9 °F 99% 30.09 in 7.0 mi West 3.5 mph - N/A   Clear
4:15 AM 74.7 °F - 73.6 °F 96% 30.09 in 10.0 mi West 3.5 mph - N/A   Clear
4:35 AM 75.2 °F - 73.6 °F 95% 30.08 in 10.0 mi WNW 3.5 mph - N/A   Clear
4:55 AM 75.2 °F - 73.8 °F 95% 30.09 in 10.0 mi Calm Calm - N/A   Clear
5:15 AM 75.2 °F - 73.8 °F 95% 30.10 in 10.0 mi Calm Calm - N/A   Clear
5:35 AM 75.4 °F - 73.9 °F 95% 30.11 in 10.0 mi Calm Calm - N/A   Clear
5:55 AM 75.2 °F - 73.8 °F 95% 30.12 in 10.0 mi NW 3.5 mph - N/A   Clear
6:15 AM 74.3 °F - 73.4 °F 97% 30.13 in 7.0 mi NW 3.5 mph - N/A   Clear
6:35 AM 73.9 °F - 73.4 °F 98% 30.13 in 7.0 mi NNW 3.5 mph - N/A   Clear
6:55 AM 74.3 °F - 73.6 °F 98% 30.14 in 7.0 mi NW 3.5 mph - N/A   Clear
7:15 AM 75.4 °F - 74.1 °F 96% 30.15 in 7.0 mi NNW 4.6 mph - N/A   Clear
7:35 AM 77.0 °F - 74.8 °F 93% 30.16 in 10.0 mi NW 5.8 mph - N/A   Clear
7:55 AM 78.1 °F - 75.2 °F 91% 30.16 in 10.0 mi NNW 6.9 mph - N/A   Clear
8:15 AM 79.0 °F - 75.4 °F 89% 30.16 in 10.0 mi NW 6.9 mph - N/A   Clear
8:55 AM 80.6 °F 86.6 °F 76.1 °F 86% 30.16 in 10.0 mi NW 8.1 mph - 0.04 in   Scattered Clouds
9:15 AM 81.3 °F 88.0 °F 76.1 °F 84% 30.17 in 10.0 mi NNW 5.8 mph - N/A   Clear
9:35 AM 83.3 °F 92.1 °F 76.5 °F 80% 30.16 in 10.0 mi NW 6.9 mph - N/A   Clear
9:55 AM 84.9 °F 94.5 °F 76.1 °F 75% 30.16 in 10.0 mi NW 6.9 mph - N/A   Clear
10:15 AM 85.8 °F 95.1 °F 75.6 °F 71% 30.16 in 10.0 mi NNW 5.8 mph - N/A   Clear
10:35 AM 86.7 °F 96.4 °F 75.6 °F 69% 30.16 in 10.0 mi NNW 9.2 mph - N/A   Clear
10:55 AM 87.1 °F 95.9 °F 74.3 °F 66% 30.16 in 10.0 mi North 3.5 mph - N/A   Clear
11:15 AM 87.6 °F 96.7 °F 74.5 °F 65% 30.15 in 10.0 mi WNW 5.8 mph - N/A   Clear
11:35 AM 88.7 °F 98.2 °F 74.8 °F 63% 30.15 in 10.0 mi North 4.6 mph - N/A   Clear
12:15 PM 89.1 °F 97.5 °F 73.6 °F 60% 30.14 in 10.0 mi Calm Calm - N/A   Scattered Clouds
12:35 PM 90.1 °F 97.3 °F 72.1 °F 55% 30.14 in 10.0 mi Calm Calm - N/A   Scattered Clouds
12:55 PM 90.0 °F 98.5 °F 73.2 °F 58% 30.14 in 10.0 mi NNW 3.5 mph - N/A   Mostly Cloudy
1:15 PM 91.6 °F 101.1 °F 73.8 °F 56% 30.13 in 10.0 mi NNW 5.8 mph - N/A   Mostly Cloudy
1:35 PM 90.3 °F 98.2 °F 72.5 °F 56% 30.13 in 10.0 mi Calm Calm - N/A   Scattered Clouds
1:55 PM 92.3 °F 101.5 °F 73.4 °F 54% 30.12 in 10.0 mi Calm Calm - N/A   Mostly Cloudy
2:15 PM 90.7 °F 97.9 °F 72.1 °F 54% 30.11 in 10.0 mi Calm Calm - N/A   Mostly Cloudy
2:35 PM 91.6 °F 99.3 °F 72.3 °F 53% 30.10 in 10.0 mi Calm Calm - N/A   Scattered Clouds
2:55 PM 92.8 °F 100.3 °F 71.6 °F 50% 30.09 in 10.0 mi Calm Calm - N/A   Clear
3:15 PM 92.8 °F 99.7 °F 70.9 °F 49% 30.08 in 10.0 mi Calm Calm - N/A   Scattered Clouds
3:35 PM 92.8 °F 99.7 °F 71.2 °F 49% 30.08 in 10.0 mi Calm Calm - N/A   Scattered Clouds
3:55 PM 92.8 °F 100.3 °F 71.8 °F 50% 30.07 in 10.0 mi Calm Calm - N/A   Clear
4:10 PM 93.2 °F 100.5 °F 71.4 °F 49% 30.07 in 10.0 mi North 3.5 mph - N/A   Clear
4:35 PM 92.5 °F 101.3 °F 73.0 °F 53% 30.07 in 10.0 mi SSW 5.8 mph - N/A   Scattered Clouds
5:15 PM 87.8 °F 98.6 °F 75.9 °F 68% 30.08 in 10.0 mi SSW 4.6 mph - N/A   Scattered Clouds
5:35 PM 87.8 °F 97.6 °F 75.2 °F 66% 30.08 in 10.0 mi SSW 5.8 mph - N/A   Clear
5:55 PM 86.4 °F 96.0 °F 75.7 °F 70% 30.08 in 10.0 mi SSW 3.5 mph - N/A   Clear
6:15 PM 84.6 °F 93.5 °F 75.9 °F 75% 30.08 in 10.0 mi Calm Calm - N/A   Clear
6:35 PM 83.7 °F 92.7 °F 76.5 °F 79% 30.09 in 10.0 mi Calm Calm - N/A   Clear
6:55 PM 83.3 °F 92.4 °F 76.8 °F 81% 30.08 in 10.0 mi South 3.5 mph - N/A   Clear
7:15 PM 81.9 °F 89.5 °F 76.6 °F 84% 30.09 in 10.0 mi SSW 3.5 mph - N/A   Clear
7:35 PM 81.5 °F 88.7 °F 76.5 °F 85% 30.09 in 10.0 mi SW 3.5 mph - N/A   Clear
7:55 PM 80.8 °F 87.2 °F 76.6 °F 87% 30.08 in 10.0 mi SW 4.6 mph - N/A   Clear
8:15 PM 80.6 °F 86.8 °F 76.5 °F 87% 30.10 in 10.0 mi SW 4.6 mph - N/A   Clear
8:35 PM 80.2 °F 86.0 °F 76.3 °F 88% 30.10 in 10.0 mi SW 3.5 mph - N/A   Clear
8:55 PM 80.2 °F 85.8 °F 76.1 °F 87% 30.11 in 10.0 mi SW 4.6 mph - N/A   Clear
9:15 PM 80.1 °F 85.5 °F 76.1 °F 88% 30.12 in 10.0 mi SW 3.5 mph - N/A   Clear
9:35 PM 79.7 °F - 76.1 °F 89% 30.13 in 10.0 mi SW 4.6 mph - N/A   Clear
9:55 PM 79.3 °F - 76.1 °F 90% 30.13 in 10.0 mi SSW 3.5 mph - N/A   Scattered Clouds
10:15 PM 79.3 °F - 76.1 °F 90% 30.13 in 10.0 mi SW 3.5 mph - N/A   Mostly Cloudy
10:35 PM 79.3 °F - 76.1 °F 90% 30.13 in 10.0 mi Calm Calm - N/A   Mostly Cloudy
11:15 PM 78.8 °F - 76.1 °F 91% 30.12 in 10.0 mi Calm Calm - N/A   Scattered Clouds
11:35 PM 78.8 °F - 76.1 °F 91% 30.12 in 10.0 mi Calm Calm - N/A   Clear
11:55 PM 77.7 °F - 76.1 °F 95% 30.11 in 10.0 mi Calm Calm - N/A   Clear